[[{"header":{"parameterUnit":"m.s-1","parameterCategory":1,"la1":30.2991,"la2":30.254,"lo1":-89.0895,"lo2":-89.0444,"dy":0.0017,"dx":0.0017,"nx":28,"ny":28,"refTime":"2024-10-11T03:00:00:Z","depth":0,"parameterNumber":2,"parameterNumberName":"U-component_of_WINDS"},"data":[0,0,0,0,0,0,0,0,0,0,0,0,0,0,0,0,0,0,0,0,0,0,0,0,0,0,0,0,0,0,0,0,0,0,0,0,0,0,0,0,0,0,0,0,0,0,0,0,0,0,0,0,0,0,0,0,0,0,-1.3443,-1.3445,0,-1.3572,-1.3574,-1.3575,-1.3563,-1.3561,-1.3559,-1.3557,-1.3692,-1.3697,-1.3702,0,0,0,0,0,0,0,0,0,0,0,0,0,-1.3189,-1.3194,-1.3443,-1.3445,-1.3446,-1.3572,-1.3574,-1.3576,-1.3563,-1.356,-1.3558,-1.3556,-1.369,-1.3696,-1.3703,0,0,0,0,0,0,0,0,0,0,0,0,0,-1.3307,-1.3195,-1.3443,-1.3455,-1.3458,-1.3572,-1.3574,-1.3576,-1.3563,-1.356,-1.3557,-1.3555,-1.3688,-1.3696,-1.3704,-1.3815,0,0,-1.3729,-1.3732,0,0,0,0,0,0,0,0,-1.33,-1.3316,-1.3452,-1.3455,-1.3457,-1.3548,-1.3534,-1.3656,-1.3564,-1.3523,-1.3557,-1.3553,-1.3647,-1.3658,-1.3689,-1.3821,-1.3827,-1.373,-1.3735,-1.3738,-1.374,0,0,0,0,0,0,0,-1.3292,-1.3311,-1.3494,-1.3454,-1.3457,-1.3455,-1.3469,-1.3557,-1.36,-1.3527,-1.3526,-1.3541,-1.3647,-1.3681,-1.3692,-1.3829,-1.3729,-1.3737,-1.3742,-1.3745,-1.4061,-1.4064,0,0,0,0,0,0,-1.328,-1.3304,-1.349,-1.3498,-1.337,-1.3462,-1.3477,-1.3522,-1.3599,-1.3608,-1.3544,-1.354,-1.3668,-1.3682,-1.3697,-1.3833,-1.3738,-1.3746,-1.375,-1.4058,-1.4062,-1.4066,0,0,0,0,0,0,-1.3275,-1.3297,-1.3485,-1.3401,-1.3425,-1.347,-1.352,-1.3526,-1.356,-1.3612,-1.362,-1.357,-1.3667,-1.3685,-1.3786,-1.3838,-1.3749,-1.3757,-1.4054,-1.4059,-1.4064,-1.4106,0,0,0,0,0,0,-1.3268,-1.3295,-1.3337,-1.3402,-1.3429,-1.3571,-1.3524,-1.3531,-1.3574,-1.357,-1.3639,-1.3647,-1.3666,-1.3774,-1.3794,-1.3847,-1.3763,-1.4049,-1.4056,-1.4062,-1.41,-1.4112,-1.4122,0,0,0,0,0,-1.3259,-1.3344,-1.3339,-1.3362,-1.3482,-1.3574,-1.359,-1.3608,-1.3578,-1.3621,-1.3655,-1.3645,-1.3828,-1.3784,-1.3807,-1.3863,-1.4046,-1.4054,-1.4062,-1.4095,-1.411,-1.4122,0,0,0,0,0,0,-1.3285,-1.3353,-1.3348,-1.3457,-1.351,-1.3572,-1.3627,-1.3623,-1.3686,-1.368,-1.3702,-1.3717,-1.3819,-1.3851,-1.3801,-1.3976,-1.3933,-1.3946,-1.3951,-1.3965,-1.3976,-1.3967,-1.377,0,0,0,0,0,-1.3303,-1.3371,-1.3427,-1.3518,-1.3545,-1.3581,-1.3622,-1.3632,-1.3688,-1.371,-1.3751,-1.3807,-1.3877,-1.3923,-1.399,-1.4105,-1.412,-1.4155,-1.4166,-1.4175,-1.4186,-1.425,-1.4267,-1.4091,-1.4091,-1.4091,0,0,-1.3342,-1.3388,-1.343,-1.3525,-1.3567,-1.3638,-1.36,-1.3677,-1.373,-1.3722,-1.382,-1.3852,-1.3915,-1.4024,-1.4074,-1.4054,-1.4238,-1.4185,-1.4191,-1.4198,-1.426,-1.4277,-1.4291,-1.4097,-1.4096,-1.4095,0,0,-1.345,-1.349,-1.3571,-1.3614,-1.3678,-1.3702,-1.3721,-1.3784,-1.3805,-1.3903,-1.3899,-1.3963,-1.4083,-1.4129,-1.4168,-1.4294,-1.4288,-1.4315,-1.4373,-1.4436,-1.4449,-1.4462,-1.4508,-1.4524,-1.4326,-1.4326,-1.4326,0,-1.349,-1.3596,-1.3613,-1.3691,-1.3733,-1.3729,-1.3811,-1.3852,-1.3936,-1.3966,-1.3942,-1.4093,-1.4136,-1.4255,-1.4286,-1.4317,-1.4341,-1.4308,-1.4446,-1.4458,-1.447,-1.4514,-1.4532,-1.4329,-1.4329,-1.4329,-1.4328,0,-1.3643,-1.3717,-1.3775,-1.3855,-1.3904,-1.3983,-1.4014,-1.4061,-1.4067,-1.4094,-1.4195,-1.4245,-1.4324,-1.4353,-1.4359,-1.4474,-1.446,-1.4441,-1.4398,-1.449,-1.4532,-1.4549,-1.4333,-1.4332,-1.4332,-1.4331,0,0,-1.3771,-1.3859,-1.388,-1.3917,-1.3988,-1.4046,-1.4126,-1.4202,-1.4243,-1.4301,-1.4369,-1.4471,-1.4454,-1.4499,-1.451,-1.4565,-1.4663,-1.454,-1.4542,-1.4562,-1.4795,-1.4809,-1.4828,-1.4659,-1.4663,-1.4665,-1.479,0,-1.3886,-1.4027,-1.4045,-1.417,-1.4239,-1.4237,-1.4307,-1.4358,-1.4386,-1.4449,-1.448,-1.4552,-1.4524,-1.4551,-1.4605,-1.464,-1.471,-1.4631,-1.4725,-1.4728,-1.471,-1.485,-1.4865,-1.498,-1.4806,-1.4809,-1.4811,0,-1.4039,-1.4101,-1.4233,-1.4295,-1.4325,-1.4387,-1.4459,-1.4519,-1.4578,-1.4594,-1.4644,-1.4649,-1.4734,-1.4687,-1.4805,-1.475,-1.479,-1.4813,-1.4818,-1.4828,-1.4775,-1.4865,-1.5017,-1.5034,-1.4836,-1.4834,-1.4833,0,-1.412,-1.4236,-1.433,-1.4362,-1.4436,-1.4481,-1.4514,-1.457,-1.4615,-1.4678,-1.4707,-1.4779,-1.4819,-1.4876,-1.4901,-1.4864,-1.5017,-1.4972,-1.5034,-1.5033,-1.5067,-1.5064,-1.5228,-1.5091,-1.509,-1.509,-1.509,0,-1.4247,-1.4328,-1.4368,-1.4426,-1.4518,-1.4538,-1.4629,-1.466,-1.4711,-1.4776,-1.4778,-1.4839,-1.4868,-1.4934,-1.4955,-1.5049,-1.5067,-1.5084,-1.5088,-1.5084,-1.5082,-1.5111,-1.5104,-1.5095,-1.5094,-1.5093,-1.5092,0,-1.4353,-1.4383,-1.4485,-1.4548,-1.4565,-1.463,-1.4684,-1.4741,-1.4768,-1.4851,-1.4872,-1.4914,-1.4993,-1.5023,-1.5119,-1.5132,-1.5242,-1.524,-1.5222,-1.5223,-1.5284,-1.5278,-1.5472,-1.5499,-1.5343,-1.5345,-1.5346,0,-1.4432,-1.4495,-1.4564,-1.4607,-1.4642,-1.4712,-1.4758,-1.4781,-1.4829,-1.4901,-1.495,-1.5028,-1.5092,-1.5217,-1.5257,-1.5331,-1.5331,-1.5394,-1.5342,-1.5337,-1.5334,-1.533,-1.5337,-1.5404,-1.5406,-1.5407,-1.5408,0,-1.4571,-1.4582,-1.4647,-1.4719,-1.4773,-1.483,-1.4886,-1.4922,-1.4954,-1.5008,-1.5087,-1.5137,-1.5234,-1.5312,-1.5388,-1.5424,-1.5422,-1.5424,-1.5442,-1.5439,-1.5426,-1.5435,-1.5249,-1.542,-1.5418,-1.5418,-1.5417,-1.5417,-1.4666,-1.4722,-1.478,-1.4853,-1.4897,-1.495,-1.5006,-1.5041,-1.5107,-1.5188,-1.5198,-1.5284,-1.5343,-1.5445,-1.5484,-1.5552,-1.5535,-1.5562,-1.5569,-1.5575,-1.5579,-1.5415,-1.5566,-1.5565,-1.5565,-1.5565,-1.5565,0,-1.4805,-1.4842,-1.4909,-1.4987,-1.5045,-1.5038,-1.5099,-1.5149,-1.5224,-1.5278,-1.5341,-1.5433,-1.5509,-1.5556,-1.5632,-1.5678,-1.5679,-1.5698,-1.5695,-1.5703,-1.5589,-1.5566,-1.5695,-1.5695,-1.5695,-1.5695,-1.5695,-1.5695,-1.4885,-1.4979,-1.4998,-1.5115,-1.5152,-1.5235,-1.5271,-1.532,-1.5364,-1.5467,-1.5529,-1.5559,-1.5611,-1.5691,-1.5761,-1.5773,-1.5801,-1.5821,-1.5832,-1.5725,-1.5711,-1.5698,-1.5677,-1.5827,-1.5827,-1.594,-1.5941,-1.5942]},{"header":{"parameterUnit":"m.s-1","parameterCategory":1,"la1":30.2991,"la2":30.254,"lo1":-89.0895,"lo2":-89.0444,"dy":0.0017,"dx":0.0017,"nx":28,"ny":28,"refTime":"2024-10-11T03:00:00:Z","depth":0,"parameterNumber":3,"parameterNumberName":"V-component_of_WINDS"},"data":[0,0,0,0,0,0,0,0,0,0,0,0,0,0,0,0,0,0,0,0,0,0,0,0,0,0,0,0,0,0,0,0,0,0,0,0,0,0,0,0,0,0,0,0,0,0,0,0,0,0,0,0,0,0,0,0,0,0,-1.8457,-1.8456,0,-1.8357,-1.8355,-1.8354,-1.8302,-1.8302,-1.8302,-1.8301,-1.8195,-1.8193,-1.819,0,0,0,0,0,0,0,0,0,0,0,0,0,-1.8599,-1.8597,-1.8457,-1.8456,-1.8455,-1.8357,-1.8355,-1.8354,-1.8302,-1.8302,-1.8302,-1.8301,-1.8196,-1.8193,-1.819,0,0,0,0,0,0,0,0,0,0,0,0,0,-1.8522,-1.8596,-1.8458,-1.8417,-1.8412,-1.8357,-1.8355,-1.8354,-1.8302,-1.8302,-1.8301,-1.8301,-1.8197,-1.8193,-1.8189,-1.8166,0,0,-1.8176,-1.8175,0,0,0,0,0,0,0,0,-1.8526,-1.8517,-1.8424,-1.842,-1.8414,-1.8342,-1.8366,-1.829,-1.8302,-1.8344,-1.8301,-1.8301,-1.8244,-1.8236,-1.8217,-1.8161,-1.8156,-1.8176,-1.8174,-1.8172,-1.8171,0,0,0,0,0,0,0,-1.8532,-1.8521,-1.8417,-1.8423,-1.8417,-1.8402,-1.8391,-1.8352,-1.8295,-1.834,-1.8336,-1.8325,-1.8241,-1.8221,-1.8214,-1.8154,-1.8176,-1.8173,-1.817,-1.8168,-1.807,-1.8069,0,0,0,0,0,0,-1.8544,-1.8526,-1.8421,-1.8414,-1.8471,-1.84,-1.8387,-1.8365,-1.8296,-1.8285,-1.8325,-1.8323,-1.8228,-1.8219,-1.821,-1.8176,-1.8172,-1.8168,-1.8166,-1.807,-1.807,-1.8069,0,0,0,0,0,0,-1.8548,-1.8536,-1.8425,-1.8469,-1.8454,-1.8397,-1.8373,-1.8363,-1.8343,-1.8285,-1.8274,-1.8315,-1.8228,-1.8216,-1.8176,-1.8171,-1.8166,-1.8162,-1.807,-1.807,-1.8069,-1.8108,0,0,0,0,0,0,-1.8552,-1.8537,-1.8529,-1.8469,-1.8452,-1.8394,-1.8373,-1.8361,-1.8337,-1.8333,-1.8273,-1.8263,-1.8227,-1.8183,-1.8172,-1.8166,-1.8159,-1.807,-1.807,-1.807,-1.8107,-1.8109,-1.8111,0,0,0,0,0,-1.8557,-1.8544,-1.8529,-1.8516,-1.844,-1.8394,-1.8384,-1.8344,-1.8337,-1.8327,-1.8288,-1.8264,-1.8174,-1.8179,-1.8167,-1.8159,-1.807,-1.807,-1.807,-1.8106,-1.8109,-1.8111,0,0,0,0,0,0,-1.8604,-1.8535,-1.8518,-1.8485,-1.8446,-1.8385,-1.8372,-1.8349,-1.831,-1.8308,-1.8259,-1.8246,-1.821,-1.818,-1.8188,-1.813,-1.8119,-1.8117,-1.8151,-1.8153,-1.8155,-1.8163,-1.8156,0,0,0,0,0,-1.8611,-1.8581,-1.8521,-1.8498,-1.8479,-1.8429,-1.8408,-1.838,-1.8337,-1.832,-1.8279,-1.8237,-1.8198,-1.8174,-1.8136,-1.8102,-1.8087,-1.809,-1.8093,-1.8095,-1.8092,-1.8069,-1.8069,-1.8068,-1.8068,-1.8068,0,0,-1.8624,-1.8583,-1.8567,-1.8506,-1.8473,-1.844,-1.8416,-1.8383,-1.8358,-1.8315,-1.8274,-1.8243,-1.8192,-1.8155,-1.8136,-1.8129,-1.8089,-1.8094,-1.8096,-1.8093,-1.8069,-1.8069,-1.8069,-1.8068,-1.8068,-1.8068,0,0,-1.8631,-1.8598,-1.8574,-1.854,-1.849,-1.8456,-1.845,-1.8392,-1.837,-1.8329,-1.8295,-1.8263,-1.8199,-1.8163,-1.8137,-1.8128,-1.8103,-1.8117,-1.8127,-1.8105,-1.8105,-1.8105,-1.81,-1.8098,-1.8115,-1.8115,-1.8115,0,-1.8654,-1.8605,-1.8564,-1.8533,-1.8506,-1.8466,-1.8439,-1.8408,-1.8347,-1.8329,-1.8322,-1.8238,-1.8202,-1.8154,-1.8151,-1.8132,-1.8122,-1.8123,-1.8109,-1.8108,-1.8107,-1.8101,-1.81,-1.8117,-1.8117,-1.8117,-1.8116,0,-1.8634,-1.8601,-1.8587,-1.8529,-1.8501,-1.8472,-1.8424,-1.84,-1.8375,-1.8341,-1.8298,-1.8252,-1.8203,-1.8189,-1.8164,-1.8137,-1.8134,-1.8119,-1.8106,-1.811,-1.8103,-1.8101,-1.812,-1.8119,-1.8118,-1.8118,0,0,-1.8669,-1.8588,-1.8583,-1.8555,-1.8495,-1.8468,-1.8436,-1.8388,-1.8367,-1.8326,-1.8296,-1.8241,-1.8226,-1.8196,-1.8166,-1.8147,-1.8139,-1.8133,-1.8131,-1.8134,-1.8103,-1.8114,-1.8113,-1.8123,-1.8122,-1.8122,-1.8107,0,-1.8667,-1.8609,-1.857,-1.8527,-1.8493,-1.8453,-1.8425,-1.8384,-1.8351,-1.8316,-1.8279,-1.8241,-1.8225,-1.8206,-1.8185,-1.8145,-1.8132,-1.8145,-1.8093,-1.8091,-1.8105,-1.8109,-1.8121,-1.811,-1.8104,-1.8104,-1.8103,0,-1.8657,-1.8616,-1.857,-1.8511,-1.8496,-1.8471,-1.8422,-1.8391,-1.8342,-1.8319,-1.8285,-1.8254,-1.8216,-1.8207,-1.8152,-1.8162,-1.8138,-1.8114,-1.8113,-1.8106,-1.8097,-1.8101,-1.8105,-1.8103,-1.8099,-1.81,-1.81,0,-1.8684,-1.8619,-1.8582,-1.8559,-1.849,-1.8473,-1.8443,-1.8395,-1.8367,-1.8324,-1.8305,-1.8258,-1.8232,-1.8195,-1.8151,-1.8149,-1.81,-1.8088,-1.8078,-1.8079,-1.8069,-1.807,-1.8068,-1.8056,-1.8056,-1.8056,-1.8056,0,-1.8685,-1.8658,-1.8593,-1.857,-1.8537,-1.8491,-1.8459,-1.8426,-1.8382,-1.835,-1.8313,-1.8283,-1.8228,-1.8191,-1.8156,-1.8114,-1.8103,-1.8082,-1.8073,-1.8085,-1.8087,-1.8067,-1.8067,-1.8056,-1.8056,-1.8056,-1.8056,0,-1.871,-1.8666,-1.8623,-1.856,-1.8544,-1.8522,-1.8468,-1.8443,-1.8407,-1.8367,-1.8355,-1.8299,-1.8253,-1.8205,-1.8144,-1.812,-1.8079,-1.8067,-1.8096,-1.809,-1.8082,-1.8083,-1.8066,-1.8061,-1.8054,-1.8054,-1.8054,0,-1.8713,-1.8691,-1.8626,-1.8602,-1.8573,-1.8536,-1.8507,-1.846,-1.8432,-1.8373,-1.8354,-1.8306,-1.8265,-1.8193,-1.8145,-1.8097,-1.8083,-1.808,-1.8075,-1.8087,-1.808,-1.8082,-1.8078,-1.8082,-1.8082,-1.8083,-1.8083,0,-1.8722,-1.87,-1.8662,-1.8615,-1.8582,-1.8542,-1.8501,-1.8484,-1.8428,-1.8397,-1.835,-1.8318,-1.8254,-1.8206,-1.8151,-1.8118,-1.809,-1.8085,-1.8079,-1.8091,-1.8107,-1.8096,-1.8099,-1.8085,-1.8085,-1.8085,-1.8085,-1.8085,-1.8734,-1.8712,-1.8662,-1.8619,-1.8583,-1.8545,-1.8518,-1.8478,-1.8439,-1.8384,-1.8357,-1.831,-1.8258,-1.8182,-1.815,-1.811,-1.8102,-1.8095,-1.8093,-1.8092,-1.8093,-1.8115,-1.81,-1.81,-1.81,-1.81,-1.81,0,-1.8739,-1.8705,-1.8666,-1.8609,-1.8575,-1.8553,-1.8505,-1.8477,-1.8436,-1.8391,-1.8351,-1.8296,-1.8248,-1.8196,-1.8144,-1.8122,-1.8108,-1.811,-1.811,-1.8102,-1.8104,-1.8113,-1.8122,-1.8122,-1.8122,-1.8122,-1.8122,-1.8122,-1.8738,-1.8698,-1.867,-1.8611,-1.8576,-1.8529,-1.8504,-1.8467,-1.8431,-1.8371,-1.8331,-1.8298,-1.8249,-1.8193,-1.8147,-1.8132,-1.8114,-1.812,-1.8102,-1.8104,-1.8103,-1.8101,-1.8109,-1.8117,-1.8117,-1.8102,-1.8102,-1.8102]}]]